Location: *
(48.7358°N, 0.3111°E)
Time: 01:51:39
(UTC+00:00)

MSX - Pass Details

Date: 22 October 2019
Orbit: 894 x 906 km, 98.7° (Epoch: 21 November)

Event Time Altitude Azimuth Distance (km) Brightness Sun altitude
Rises 05:08:41 0° 9° (N) 3,523 7.0 -13.9°
Reaches altitude 10° 05:11:14 10° 2° (N) 2,578 6.2 -13.5°
Maximum altitude 05:16:28 38° 296° (WNW) 1,341 4.3 -12.6°
Drops below altitude 10° 05:21:41 10° 230° (SW) 2,565 5.8 -11.8°
Sets 05:24:13 0° 223° (SW) 3,502 6.5 -11.3°
